Wind_Speed
9 9 8 8 7 7 6 6 6 5 5 5 6 5 6 7 8 9 9 9 7 5 4 5 6 7 8 9 11 12 13 15 13 16 20 18 15 14 14 13 12 11 9 8 7 5 2 3 3 5 4 3 3 4 4 4 4 1 3 3 1 2 3 4 5 5 3 2 4 2 4 7 5 7 12 8 8 14 14 13 13 12 12 11 9 5 2 2
9 8 8 7 7 7 6 6 5 4 5 5 6 6 7 7 8 10 11 12 11 9 6 3 5 6 6 7 8 7 10 14 15 19 20 15 13 13 13 12 12 10 8 7 7 8 3 1 1 3 3 3 3 4 4 3 3 1 3 2 2 5 3 3 5 4 2 3 5 3 3 5 4 9 11 4 5 12 11 11 13 14 13 10 7 4 3 4
8 8 8 8 7 7 6 5 5 5 5 6 7 8 8 8 9 11 14 16 16 15 13 8 5 6 6 6 5 3 4 9 16 20 17 13 12 10 10 12 12 10 8 7 7 7 5 4 2 1 2 2 2 4 4 2 1 0 2 1 4 6 1 1 3 2 1 3 6 5 4 2 3 6 7 5 6 4 5 8 9 12 13 10 7 5 5 7
8 8 8 8 7 7 6 6 7 6 6 8 9 9 9 10 11 11 14 16 17 16 16 14 10 7 6 3 0 3 3 4 15 19 15 13 12 9 9 11 11 12 10 7 6 6 5 5 3 3 3 2 2 0 2 1 1 1 3 3 4 4 2 2 3 2 2 2 4 6 3 1 3 2 5 10 7 2 6 10 7 12 15 11 9 7 7 9
9 8 8 8 8 7 7 8 7 8 9 10 10 10 11 12 12 11 11 12 14 14 13 13 13 11 8 7 6 4 4 1 11 16 13 13 13 9 7 10 13 14 13 10 6 5 5 6 4 3 3 2 4 2 1 3 1 2 1 2 4 6 3 4 3 2 2 2 4 5 2 2 3 2 6 12 5 4 8 11 9 14 15 12 11 9 9 11
9 9 9 8 8 8 8 8 9 10 11 11 11 11 12 12 13 11 8 8 11 13 10 8 8 9 8 11 13 7 6 3 10 14 13 13 14 9 7 10 14 15 15 12 5 3 3 6 5 5 4 3 4 2 4 6 2 1 1 1 3 5 3 4 5 2 2 2 4 4 3 4 3 1 4 8 4 4 9 12 13 14 13 12 11 10 10 12
10 9 9 8 9 8 8 9 10 11 10 11 10 11 11 11 12 11 9 9 11 13 12 8 4 4 5 8 12 16 16 11 13 14 12 14 13 10 7 9 14 15 17 17 10 3 4 7 8 7 4 4 4 3 6 6 4 3 1 1 2 4 2 4 4 3 2 1 2 3 5 5 4 2 3 5 4 9 13 13 13 13 13 11 10 11 11 12
10 9 8 8 8 8 9 10 10 10 10 10 9 9 10 10 11 11 11 11 11 13 15 14 8 3 5 5 7 18 23 17 15 14 12 13 12 11 9 9 14 18 20 22 18 9 7 11 11 7 3 3 3 3 5 6 5 4 0 2 1 2 2 3 3 4 3 2 3 5 6 6 7 5 4 7 10 13 15 14 14 14 13 12 11 12 11 12
9 8 8 8 8 8 9 10 10 9 9 8 7 7 8 10 12 12 11 10 10 11 14 18 15 7 4 4 7 14 18 18 16 15 12 10 10 11 10 10 14 19 21 21 20 14 12 14 11 6 2 2 5 4 5 4 2 2 2 4 1 2 2 3 4 5 5 5 6 7 4 5 6 4 4 10 14 15 16 15 16 15 14 13 12 12 12 12
8 8 8 8 8 8 9 9 9 8 8 7 7 7 8 10 11 11 10 8 9 9 12 15 16 14 8 9 16 12 13 18 17 14 11 7 8 9 10 11 13 18 20 20 21 19 16 14 9 5 2 3 6 5 5 3 1 4 4 4 3 2 2 2 7 8 7 7 10 9 4 4 7 3 4 12 17 17 18 18 17 17 16 15 14 13 12 12
8 8 8 8 8 8 8 8 8 8 8 8 8 9 9 8 7 8 8 8 9 10 12 13 14 17 18 25 25 13 15 20 16 14 9 4 5 8 11 12 13 16 19 20 21 20 18 13 8 3 2 4 5 2 4 4 2 5 4 3 4 6 2 1 8 11 7 4 10 9 3 2 5 3 7 13 20 20 19 21 20 18 18 17 15 14 12 12
8 8 8 8 9 9 9 8 8 8 8 9 10 8 7 6 7 8 7 7 9 9 10 13 13 13 21 33 29 17 19 22 18 15 9 3 4 7 11 13 14 15 15 16 17 17 17 14 10 7 3 2 1 2 3 5 4 4 5 2 6 10 3 3 10 8 5 2 5 4 1 1 4 8 11 12 20 22 20 23 22 19 19 18 16 15 15 14
8 8 7 8 8 9 9 8 8 8 9 9 7 7 8 9 9 8 7 6 5 7 7 11 14 15 21 25 23 20 20 22 20 14 9 6 5 5 8 11 13 14 13 14 13 12 14 14 11 14 12 3 2 2 2 5 7 4 6 3 4 9 4 6 13 8 3 3 2 1 4 6 6 12 10 13 22 23 22 23 22 21 21 19 18 17 16 14
8 7 7 8 9 9 9 9 9 8 8 7 6 8 11 12 11 8 8 7 6 7 8 9 9 13 19 17 17 21 20 20 20 15 11 9 7 6 6 9 10 11 11 14 12 8 8 9 11 16 18 10 1 1 3 5 8 4 4 4 4 3 5 9 11 7 5 3 2 2 6 8 6 9 6 16 23 24 23 22 21 22 22 20 19 18 17 14
7 7 8 9 9 9 9 9 9 8 8 6 6 7 7 10 11 8 8 7 7 9 10 10 8 8 13 12 13 19 20 20 20 18 15 10 9 8 6 7 7 8 9 13 11 7 5 6 12 16 14 15 8 3 4 5 5 5 4 4 3 0 5 11 10 4 4 5 7 4 6 7 6 6 5 17 22 24 22 18 20 23 23 21 20 20 17 14
8 9 11 12 11 12 11 10 10 9 8 7 5 3 3 6 9 8 7 7 10 11 9 10 12 13 11 8 12 19 23 24 24 20 14 9 9 11 7 4 4 6 5 8 7 7 7 7 13 17 15 16 10 3 4 5 4 4 3 3 5 3 4 8 8 6 6 6 7 2 3 7 6 3 5 16 22 22 17 14 20 23 23 22 21 18 17 16
12 15 17 16 15 14 12 11 10 11 11 11 11 9 7 8 8 8 9 9 9 11 15 13 9 11 13 11 14 20 23 25 25 19 12 8 10 11 8 5 6 6 1 4 6 7 10 10 8 9 11 9 4 3 5 5 5 4 3 2 4 4 4 5 8 8 9 7 5 2 3 8 10 6 6 17 21 15 13 15 20 23 23 22 20 17 17 19
17 18 17 16 15 14 13 13 13 15 17 19 22 22 20 16 12 12 10 7 6 7 14 19 10 6 9 14 17 18 19 24 24 19 11 7 10 11 8 7 7 5 2 4 9 11 10 9 5 2 5 6 5 7 5 1 3 4 4 4 4 3 4 5 7 6 9 5 3 5 5 8 13 11 8 12 14 12 16 20 23 25 24 21 19 19 19 19
18 16 16 15 14 14 14 14 13 14 16 18 21 22 22 22 21 22 22 20 19 11 7 16 15 4 2 12 17 15 15 22 24 20 13 7 8 9 8 7 6 6 5 4 9 12 8 6 7 4 5 6 4 4 4 5 4 5 6 4 5 5 4 7 8 5 9 7 5 6 7 10 13 13 11 2 14 19 22 24 25 24 23 21 20 20 20 20
15 14 14 13 12 12 12 11 10 8 9 10 10 10 9 12 15 17 24 29 28 20 12 15 17 9 4 9 17 16 13 19 25 23 19 12 5 6 11 10 8 11 8 2 4 8 8 6 5 2 4 6 6 2 5 3 3 2 3 2 5 6 5 7 9 6 7 6 8 9 8 9 8 11 11 13 23 22 23 23 22 23 23 23 22 21 21 19
13 13 12 12 12 12 13 13 13 10 10 9 9 10 8 8 8 7 14 21 19 18 19 20 19 16 11 9 15 17 14 18 28 27 22 18 9 6 11 11 8 9 7 4 1 4 8 7 4 5 7 5 3 0 3 3 3 3 3 3 5 5 7 9 9 5 8 6 11 11 7 7 7 10 10 19 20 16 20 20 19 21 22 23 23 21 20 18
11 11 11 11 11 11 11 13 14 13 11 9 10 13 14 13 12 10 11 12 12 15 16 18 20 19 16 11 11 17 21 21 26 31 26 21 17 11 11 11 6 4 7 5 3 5 7 4 6 7 4 2 5 4 6 5 3 4 3 2 4 5 7 10 7 1 6 5 10 10 6 4 7 9 11 18 18 17 23 24 22 22 21 21 22 20 19 20
10 10 10 9 9 8 9 10 11 10 9 8 9 9 11 12 11 10 10 8 9 13 12 15 19 21 19 15 11 15 25 21 18 30 31 22 19 13 10 9 5 3 7 6 4 4 4 2 5 5 5 7 6 6 6 5 4 3 2 2 4 5 5 7 7 5 4 3 6 9 5 3 6 8 11 16 20 22 23 25 25 23 20 19 19 18 18 20
10 9 8 7 7 6 7 8 7 7 9 9 8 5 6 8 8 7 7 6 5 9 11 11 15 20 20 18 14 9 18 21 19 27 30 23 18 11 7 7 5 5 6 4 7 6 1 5 4 5 9 8 4 6 6 5 5 4 2 2 5 7 5 7 10 10 8 4 3 5 5 2 4 6 7 9 16 18 19 22 22 21 20 20 20 20 18 19
9 7 6 5 5 4 5 6 6 7 9 8 7 3 2 2 3 3 4 4 2 6 9 8 11 18 19 20 16 4 8 19 22 26 27 22 16 8 5 7 6 5 5 1 4 4 1 4 4 4 7 7 5 5 3 1 4 6 3 4 5 8 10 12 11 8 6 5 3 3 4 2 1 6 5 4 8 10 13 17 16 17 20 21 23 22 18 20
7 6 5 4 3 2 2 4 6 7 7 6 6 4 1 3 2 2 2 4 3 6 8 8 8 14 18 21 18 3 4 11 16 25 29 20 14 10 6 7 5 4 3 1 2 1 1 5 5 5 4 6 7 5 2 1 3 5 4 3 5 8 10 15 12 5 2 4 4 3 3 3 1 4 4 3 5 6 8 11 12 15 18 20 22 21 19 21
6 4 4 4 2 2 0 3 6 6 5 5 5 4 1 2 3 4 2 5 4 4 6 7 6 11 14 18 19 7 1 11 11 20 31 22 13 11 9 6 3 3 3 1 3 2 2 6 7 5 5 6 6 5 4 0 2 5 5 2 6 10 12 15 10 2 3 3 4 3 1 3 3 2 4 4 5 5 5 6 8 14 18 20 21 21 20 23
3 3 2 2 2 1 2 3 5 5 5 5 5 3 0 2 4 4 4 5 4 4 4 6 5 10 12 14 20 13 3 10 9 12 26 24 15 10 9 7 2 4 4 3 3 4 1 4 5 3 5 4 3 5 6 1 1 7 6 3 5 8 10 12 8 3 3 1 3 5 3 3 3 2 4 2 4 5 5 5 7 13 17 20 22 21 20 24
2 3 4 4 2 2 4 5 6 6 5 5 3 2 1 3 4 2 6 3 3 3 4 7 6 11 16 13 18 17 8 11 9 9 21 25 20 11 4 7 7 3 2 6 2 4 3 2 2 2 3 2 4 8 6 3 3 8 5 4 6 6 6 8 5 3 2 0 4 4 2 1 3 2 5 2 3 3 3 3 5 11 15 18 21 21 21 26
4 4 5 6 5 5 6 7 8 7 5 4 3 1 3 3 3 4 6 1 2 4 5 7 5 10 17 11 12 17 10 9 11 12 19 25 28 23 6 6 13 3 2 8 2 5 8 4 2 2 1 2 4 9 6 5 5 8 5 6 7 5 4 3 2 1 2 1 5 4 1 2 4 2 3 1 3 4 2 3 5 11 15 18 21 21 23 26
6 6 6 7 7 7 8 8 8 6 5 3 3 3 3 2 4 7 4 2 1 5 6 5 4 7 11 5 5 12 7 7 12 11 13 15 21 25 12 5 11 6 3 7 4 8 9 1 1 3 1 2 3 6 6 4 3 5 3 5 8 5 3 3 4 3 3 5 6 2 4 4 4 3 3 4 5 6 4 3 5 9 13 17 19 21 24 27
5 4 4 4 4 5 5 6 5 4 3 3 4 3 3 2 5 3 1 4 2 4 3 2 4 5 6 4 4 7 4 4 9 7 5 5 7 11 10 5 6 5 5 6 5 8 5 1 4 5 1 5 5 4 5 4 5 6 3 5 6 6 5 5 5 4 3 6 5 3 7 4 5 3 6 7 5 5 6 4 5 8 12 17 20 23 26 29
5 4 3 4 3 1 1 2 3 3 2 3 4 2 5 5 3 1 3 3 1 2 2 2 4 4 3 5 5 6 3 2 7 6 3 3 5 5 6 7 6 3 2 3 4 6 4 3 6 4 2 7 8 4 6 5 4 5 2 3 4 3 6 7 6 4 5 7 3 3 5 4 5 2 8 11 8 8 7 9 10 12 15 18 22 24 28 33
6 7 6 5 4 3 3 3 4 4 2 3 3 3 8 5 0 1 3 3 2 3 2 1 4 5 3 4 2 4 4 2 3 6 5 4 5 4 4 7 8 4 1 2 3 3 3 5 3 2 3 7 7 3 4 5 5 4 1 4 3 1 3 6 4 3 7 9 5 2 1 4 5 2 9 14 10 8 11 15 14 17 20 22 26 29 36 41
8 7 6 7 6 4 5 4 3 3 3 3 5 7 6 2 2 0 1 4 2 3 3 2 3 5 4 3 3 2 3 2 2 5 5 4 3 3 3 4 6 4 1 2 3 1 1 5 6 2 4 3 7 7 3 1 4 3 1 3 2 2 4 4 5 5 6 8 5 1 1 4 2 2 7 9 4 11 15 19 20 22 25 28 31 35 39 40
11 9 8 8 6 6 5 3 2 2 3 5 7 6 3 2 2 2 1 2 1 2 4 5 5 5 4 4 4 4 2 1 2 4 3 2 2 3 3 2 3 4 2 1 2 1 1 6 7 8 5 1 8 11 3 1 2 2 2 2 5 3 4 2 6 3 2 5 4 1 3 3 1 2 4 2 8 12 14 18 18 19 23 28 30 33 35 35
12 13 13 10 9 7 3 2 2 3 5 8 8 3 3 1 1 2 1 2 1 1 3 4 3 3 3 3 4 6 5 3 3 4 2 1 1 2 3 3 1 4 3 1 1 0 1 6 7 5 4 5 15 15 4 1 2 1 2 5 5 1 3 2 3 4 2 5 5 4 7 6 3 3 2 7 12 13 11 11 11 16 22 25 26 29 32 34
10 13 15 14 11 8 5 6 5 5 11 13 7 3 2 0 0 1 2 1 1 1 5 3 1 2 1 2 3 5 5 4 4 3 2 2 2 2 2 3 1 5 7 1 1 0 1 5 7 1 3 10 15 11 4 3 2 2 1 3 3 3 3 2 2 5 6 6 7 9 11 7 3 2 5 9 12 10 8 7 9 15 19 21 24 28 32 34
4 8 14 15 13 12 8 5 4 7 12 10 3 2 1 1 1 1 2 1 0 2 4 1 1 2 1 0 2 4 3 3 3 3 2 2 3 2 3 1 3 9 12 2 2 2 0 1 6 3 3 8 8 5 4 6 3 1 3 4 3 1 4 3 2 4 6 7 8 10 11 4 2 1 3 7 8 7 9 9 9 13 17 21 26 30 33 34
1 4 9 11 11 13 9 4 9 13 11 4 3 2 0 1 1 2 3 2 1 3 2 1 0 2 2 2 1 2 2 3 3 2 1 1 2 2 3 2 3 10 12 4 2 2 1 1 5 5 5 6 4 2 4 5 3 4 5 5 4 3 3 4 3 2 3 6 6 9 10 3 3 2 0 5 7 8 11 10 8 14 21 25 30 33 34 35
4 4 7 9 6 5 5 8 14 12 5 2 3 2 1 2 2 2 4 3 2 3 2 2 2 1 0 2 2 1 2 3 2 1 1 2 2 1 3 4 4 7 7 4 3 2 1 1 4 6 6 4 5 5 3 3 1 2 3 3 4 3 3 5 6 3 2 4 5 8 11 5 2 4 2 4 8 11 13 12 12 18 24 29 33 35 35 37
7 4 7 11 5 1 5 10 10 6 4 4 3 3 2 2 2 2 3 3 2 2 2 2 2 1 1 1 1 1 1 2 2 2 1 1 0 1 2 7 8 5 1 2 3 2 1 1 3 6 5 6 10 6 1 1 0 2 1 2 2 2 2 4 7 6 5 8 8 7 9 6 3 4 3 8 10 13 16 16 17 22 27 32 35 37 38 39
12 8 7 8 6 6 9 8 6 5 5 3 2 4 3 2 2 2 3 3 2 2 3 2 1 1 0 1 0 1 1 1 0 1 0 1 1 3 3 7 8 4 2 1 3 2 0 1 3 6 5 5 8 4 2 1 4 4 2 2 3 4 4 5 6 4 5 10 9 7 9 6 2 1 14 17 14 15 18 21 23 26 29 34 37 39 41 41
17 16 14 9 3 4 6 4 2 3 2 2 4 4 4 4 4 2 2 3 3 1 2 1 1 2 1 1 2 1 2 2 0 0 1 2 1 2 3 5 5 3 2 1 2 4 3 0 2 5 7 8 9 7 5 4 5 4 4 4 4 6 8 6 3 2 2 5 7 7 10 9 3 8 20 19 14 14 20 25 28 28 31 35 38 39 41 41
11 13 18 18 12 10 9 7 9 6 2 3 4 3 2 4 4 4 3 3 3 2 2 1 1 1 1 1 2 2 2 2 1 1 2 1 2 1 1 3 4 3 1 1 2 3 1 1 2 3 4 8 9 9 10 9 7 4 5 7 6 5 5 4 2 2 3 4 5 6 10 12 12 16 20 16 12 14 19 25 28 29 33 37 38 40 41 41
4 4 9 16 19 20 17 12 12 9 4 4 4 2 2 2 1 3 3 3 4 4 3 3 2 1 3 4 3 3 3 2 1 1 1 1 3 2 0 2 4 4 1 0 3 2 2 0 1 4 3 7 9 11 12 10 10 10 11 12 8 3 3 3 3 4 6 7 6 7 12 16 19 21 18 15 15 16 18 22 27 30 34 37 38 40 42 41
5 2 2 5 11 15 15 11 10 8 5 4 3 1 2 1 1 3 3 2 4 4 3 5 5 3 3 4 3 2 4 3 2 1 0 3 4 3 3 2 2 4 2 1 3 2 3 2 3 5 6 9 11 15 14 10 10 13 14 11 6 4 5 6 4 6 7 8 10 13 18 21 22 20 16 14 16 15 17 23 29 33 35 37 39 41 41 39
5 4 4 5 3 4 6 6 8 10 6 4 3 1 2 3 2 2 1 2 4 4 3 3 5 5 2 1 2 0 4 5 3 2 1 2 3 3 4 2 0 4 3 3 3 3 4 2 4 3 8 12 12 13 13 9 8 11 12 7 3 5 6 4 5 8 7 7 14 21 23 23 22 17 13 14 18 19 23 30 35 37 38 38 39 40 38 37
11 9 7 8 6 5 6 5 9 13 9 4 3 2 2 3 2 0 1 2 3 4 5 2 4 6 4 2 3 2 2 2 3 4 1 2 3 2 2 2 1 3 4 3 3 3 2 3 5 3 8 12 11 10 9 8 10 13 9 2 3 3 5 4 6 8 9 11 16 22 24 22 16 12 12 18 26 30 32 36 38 38 39 40 39 38 36 35
10 9 10 15 13 9 7 4 5 8 6 5 4 2 1 3 2 1 2 4 2 3 5 2 4 6 2 2 4 2 3 4 4 5 3 1 2 1 1 1 2 3 6 3 1 3 3 3 4 2 5 9 9 9 9 10 13 13 6 3 3 4 6 7 7 8 11 15 18 20 21 16 10 11 18 25 31 33 33 35 37 38 41 42 39 37 35 34
12 13 17 18 10 6 4 3 3 5 3 4 2 1 0 2 3 2 3 5 4 2 2 1 3 4 1 2 2 1 4 6 6 6 4 3 3 3 2 2 2 2 4 2 2 2 3 3 4 4 5 7 7 11 16 17 14 8 5 5 5 6 7 8 9 11 14 18 21 19 15 10 10 15 21 24 27 29 29 31 35 40 43 41 35 34 35 37
15 15 14 13 6 5 4 3 4 5 2 2 1 1 1 2 3 4 4 3 5 5 2 2 2 2 1 3 2 3 3 4 5 4 2 3 3 2 1 1 3 1 1 0 1 1 2 2 3 3 5 9 10 12 14 13 9 6 2 1 4 9 11 11 12 14 15 16 16 13 10 11 15 19 19 20 22 24 26 31 38 41 40 37 35 35 39 42
Wind_Direction
116 112 111 108 104 97 94 90 91 93 86 71 57 60 62 47 34 33 42 52 58 64 92 125 126 117 101 85 72 63 55 50 52 56 51 40 27 23 26 28 29 28 24 17 19 32 185 234 272 232 234 246 271 283 275 240 202 134 85 104 229 200 193 207 186 191 169 185 245 242 165 149 151 157 141 124 96 104 101 96 103 106 106 104 110 125 114 110
115 112 112 105 98 91 84 81 77 73 71 64 60 64 58 46 37 45 61 65 64 60 67 122 148 145 124 100 87 78 58 45 49 51 43 33 27 24 21 22 22 19 22 26 27 32 64 77 297 211 257 260 262 275 256 222 194 125 105 101 235 206 204 207 178 190 162 159 193 198 189 171 162 169 164 153 104 108 99 98 108 108 106 111 120 130 118 105
115 112 108 97 89 80 73 65 59 61 65 66 67 67 60 50 46 63 79 74 67 62 61 76 120 148 134 117 107 88 40 29 34 35 31 30 31 27 18 16 16 11 6 10 12 13 26 29 26 18 320 271 271 258 232 223 218 190 109 113 248 212 185 217 178 180 178 163 172 185 209 189 123 164 180 159 137 124 128 137 131 122 121 123 122 122 115 95
115 110 100 88 80 70 64 59 60 66 71 77 77 73 66 55 54 79 93 80 68 64 64 72 86 109 120 122 196 271 266 18 21 17 19 25 29 30 19 8 9 14 6 353 351 349 358 10 355 340 333 291 332 245 219 294 273 6 113 186 229 179 157 212 189 202 207 195 190 193 199 144 118 152 179 148 131 292 199 173 167 150 140 132 128 120 108 97
112 103 89 78 72 66 64 65 71 80 85 88 85 79 71 59 58 83 102 84 65 60 65 77 86 93 91 52 9 287 230 5 4 8 15 20 26 30 19 6 3 8 6 352 329 318 345 4 8 12 357 331 3 63 21 4 45 15 63 176 163 152 198 212 186 204 205 185 166 171 187 201 161 98 158 161 170 258 198 180 168 156 149 142 137 124 112 101
105 91 80 73 69 69 69 75 83 90 93 93 92 82 72 64 62 74 99 86 57 51 54 72 87 84 75 50 39 60 110 65 357 7 15 16 22 26 19 8 2 2 6 4 339 296 358 12 30 36 22 15 18 61 14 1 34 349 302 45 152 174 199 194 194 204 199 171 153 172 209 198 167 95 173 183 224 196 166 165 157 153 152 149 141 127 115 102
94 83 77 74 73 73 74 86 94 95 96 97 96 83 73 68 63 68 80 78 61 51 43 36 58 53 52 62 58 66 69 42 10 11 15 17 18 20 23 12 11 13 16 26 37 56 40 30 37 33 37 39 9 14 7 358 42 82 211 313 165 182 183 196 213 217 216 214 199 201 195 201 196 197 200 186 173 155 155 159 157 156 156 154 144 130 114 102
87 82 79 78 78 79 84 96 100 96 97 102 100 83 72 67 68 74 76 77 67 57 47 39 39 36 54 76 65 51 42 22 11 11 13 20 17 19 27 25 28 31 32 37 43 55 52 39 35 26 50 61 2 347 6 7 35 68 94 308 194 185 217 207 229 239 247 244 228 201 194 229 218 200 209 178 161 158 162 165 163 162 160 156 145 131 119 108
87 84 82 84 84 86 94 101 100 96 98 104 99 80 73 77 79 76 72 72 63 56 52 48 45 47 68 75 64 46 26 15 13 8 11 23 21 22 29 33 38 40 43 45 44 48 45 36 29 19 79 53 12 5 13 23 1 360 346 339 328 237 238 209 243 243 242 232 200 190 211 245 202 197 234 189 174 169 168 169 169 166 159 153 143 133 127 115
88 85 83 87 89 94 101 104 101 95 94 97 93 87 89 90 79 65 61 63 64 58 53 55 53 56 77 74 70 58 20 21 18 5 8 23 29 30 34 41 48 49 49 46 42 42 38 32 20 20 102 23 4 4 14 47 356 330 329 358 26 304 271 264 282 263 244 239 215 201 214 211 174 165 250 196 178 173 173 171 170 168 158 150 143 134 128 113
87 86 86 88 95 101 105 108 100 91 91 94 96 96 94 84 59 54 67 73 76 70 58 59 58 61 66 63 66 57 23 25 19 10 9 22 48 36 38 50 60 59 52 44 40 36 32 28 20 35 106 356 351 7 32 41 346 327 332 329 345 346 332 354 312 276 252 250 230 208 171 175 167 191 240 204 180 177 178 173 171 167 156 148 141 132 121 109
90 91 93 96 100 103 105 104 95 91 94 98 100 93 79 66 57 66 89 97 81 67 55 54 58 62 59 56 55 41 25 24 17 15 14 16 53 40 46 61 66 61 50 40 35 27 25 25 29 48 43 310 342 41 34 18 342 329 17 342 325 0 360 359 352 298 244 262 250 199 120 251 204 241 245 202 180 180 180 175 171 163 153 145 136 125 115 108
98 99 101 102 102 101 101 97 94 95 98 103 98 81 76 72 67 65 80 111 90 61 57 62 65 62 59 57 46 32 26 21 14 15 26 34 43 43 54 66 65 56 45 35 24 15 20 21 35 51 42 36 157 47 30 25 17 355 20 38 350 3 325 341 5 345 307 279 262 71 310 274 230 252 247 188 181 181 180 178 170 160 149 140 131 120 115 107
101 99 99 100 101 100 97 94 95 97 101 101 90 94 92 72 62 65 73 91 91 67 55 58 62 51 58 65 42 29 24 21 17 11 19 32 37 40 62 75 62 46 38 27 16 20 23 6 27 47 37 32 79 47 24 25 30 7 349 31 43 6 287 320 343 346 357 321 336 27 292 282 277 283 232 184 187 184 181 176 166 156 144 135 129 120 113 102
94 91 93 98 100 99 96 94 96 98 97 87 87 108 94 55 53 65 73 75 75 69 56 53 56 49 58 61 35 26 23 23 21 11 5 12 28 33 66 95 62 37 27 14 15 50 37 351 33 43 28 28 43 60 15 4 21 24 4 344 349 54 284 309 319 358 41 334 345 353 277 282 300 315 192 186 193 189 181 171 158 150 141 132 126 117 107 91
91 89 93 96 96 97 96 98 98 93 86 75 77 90 48 44 62 74 78 77 77 70 56 53 59 61 58 40 24 25 23 20 17 11 2 11 31 27 44 86 34 12 2 13 38 71 38 23 50 44 30 31 39 63 40 17 355 8 40 302 290 307 313 315 317 351 36 357 349 3 271 290 301 335 198 196 197 190 171 149 145 142 139 131 122 114 99 80
97 94 92 90 91 97 100 101 97 89 83 76 71 66 63 68 79 88 81 81 84 64 49 49 63 71 59 36 21 16 18 18 15 14 13 32 39 18 26 50 31 19 17 57 50 47 36 40 60 42 38 41 22 60 57 17 334 329 21 323 277 278 296 319 305 328 23 23 348 322 252 278 291 307 237 207 199 180 139 127 130 131 131 125 115 105 87 69
103 95 88 87 91 97 101 102 100 98 93 87 82 81 82 82 84 87 80 75 72 53 42 38 45 96 52 20 11 4 11 19 18 23 28 49 43 16 18 33 24 24 68 66 25 27 39 41 60 55 30 30 10 53 68 308 280 288 318 308 296 295 276 292 287 320 12 5 315 313 291 291 298 304 281 224 190 138 117 117 115 115 116 112 102 87 65 52
105 91 87 91 92 95 100 98 96 100 96 92 90 86 85 85 81 74 69 67 64 67 45 26 33 90 357 356 5 7 16 24 24 30 36 49 47 30 40 39 23 35 55 51 13 22 39 37 46 40 359 351 342 88 145 205 205 248 270 252 274 293 273 275 271 304 354 339 305 314 312 307 305 316 324 201 134 112 107 107 104 103 96 87 78 62 45 43
103 90 92 92 91 93 93 86 83 99 101 97 93 84 82 77 71 62 59 63 66 70 65 42 42 52 28 0 12 16 23 30 30 32 33 30 25 29 38 38 45 52 43 6 350 17 47 59 43 9 286 300 298 196 168 189 168 238 290 273 280 283 284 289 281 302 11 358 300 307 319 307 317 340 359 89 105 99 98 97 93 90 77 65 56 45 40 41
101 95 96 90 93 91 81 74 73 86 95 89 80 78 78 72 76 77 66 66 65 63 56 48 45 43 36 20 18 19 22 30 30 31 30 26 30 35 28 28 46 42 0 333 23 27 57 68 5 298 257 279 317 139 86 66 82 31 342 325 326 306 293 290 279 303 32 16 300 310 335 325 4 15 34 81 88 83 89 89 84 82 71 56 45 39 38 32
99 99 98 94 97 87 75 73 70 73 75 67 66 77 84 86 91 96 90 83 66 54 46 40 41 39 36 34 28 24 25 24 21 22 22 24 38 46 34 39 55 16 342 5 48 17 45 50 319 306 273 47 38 35 41 41 50 29 9 360 338 315 303 294 265 255 39 1 301 318 352 14 39 43 53 72 83 81 81 83 79 75 65 49 39 34 30 21
98 102 103 102 100 88 72 68 67 64 60 52 51 72 91 92 93 91 92 97 71 46 33 32 32 28 29 30 24 32 37 32 11 11 13 17 32 38 39 44 52 10 359 24 68 51 45 348 321 1 47 54 23 11 33 29 21 20 3 344 305 306 329 312 297 319 341 266 271 311 335 77 76 65 62 70 85 84 80 81 75 67 59 45 36 31 24 18
98 99 106 109 102 94 71 61 60 56 50 44 40 61 106 98 99 102 91 100 81 36 28 30 26 22 22 17 9 35 49 41 22 10 9 14 24 29 34 35 43 30 3 30 80 84 175 283 319 36 48 53 26 7 37 32 355 318 263 263 299 309 310 285 292 317 322 286 271 322 336 38 80 82 82 75 79 79 77 77 68 56 47 35 28 23 19 17
95 92 100 108 105 101 70 53 42 41 40 36 31 35 134 133 118 104 82 95 61 3 17 23 19 19 15 10 9 50 69 40 29 14 9 18 24 23 22 22 33 18 341 2 70 66 303 307 340 32 31 41 42 9 20 66 352 325 260 230 284 304 304 294 300 330 339 320 333 16 11 327 62 96 104 88 77 73 71 71 62 46 36 27 21 15 13 12
87 81 86 89 108 136 77 36 26 26 26 24 20 19 292 237 212 156 97 76 4 330 360 8 9 11 10 9 8 45 96 24 22 17 15 19 21 29 24 1 24 29 324 282 42 23 307 359 38 75 47 32 32 6 320 113 32 328 257 228 290 301 307 301 306 341 339 280 302 30 92 236 242 100 117 112 90 75 69 70 57 41 29 21 16 11 9 6
77 67 74 72 87 176 207 12 13 8 7 6 2 10 334 239 187 183 131 48 360 318 358 1 1 7 11 16 18 60 116 340 359 20 19 19 16 37 44 2 2 4 312 346 27 302 291 2 21 50 45 40 27 349 302 156 60 286 268 334 318 311 311 302 303 297 233 264 312 350 109 236 271 122 168 148 96 69 64 64 43 32 23 16 12 8 6 1
61 35 19 31 48 193 249 326 342 343 347 339 344 11 358 193 176 172 105 68 343 329 1 354 3 8 15 33 38 65 94 353 6 11 17 27 23 31 56 39 356 271 309 50 18 293 282 8 346 10 33 31 350 303 279 229 236 266 272 301 290 298 302 294 296 271 249 288 306 315 346 289 287 173 189 176 88 59 46 46 27 19 15 12 7 3 360 355
9 341 328 322 329 295 271 292 311 322 328 317 327 21 113 155 169 112 78 102 323 352 355 355 2 353 3 29 36 41 49 29 28 359 15 31 31 31 78 32 18 250 322 49 51 281 298 302 276 110 71 350 281 284 267 175 251 277 288 309 288 292 286 277 288 284 280 196 250 283 22 326 292 192 182 183 86 62 32 50 26 10 11 9 2 358 354 350
330 313 313 305 296 290 276 281 293 298 305 299 284 198 132 116 118 65 46 53 326 350 337 0 2 345 2 21 19 16 27 30 19 12 20 30 34 37 57 4 14 41 13 23 34 294 312 280 219 123 101 259 271 294 279 190 258 306 347 344 318 300 271 274 323 43 41 314 240 228 107 360 312 220 174 148 113 106 60 36 10 3 7 2 357 354 350 347
331 317 310 301 289 283 275 278 283 280 279 258 228 190 144 73 69 86 60 291 308 347 348 3 351 357 18 41 5 359 7 14 11 24 22 20 30 32 35 4 2 22 23 5 345 324 340 49 225 298 316 356 313 301 294 243 311 360 25 344 333 321 317 349 5 40 20 303 251 232 5 342 288 247 149 136 137 122 94 43 1 357 1 356 352 351 349 346
1 345 325 317 297 287 278 268 263 255 255 213 192 180 142 35 30 80 309 314 332 347 355 328 328 1 13 27 12 349 347 1 9 36 33 15 36 30 35 35 353 3 10 357 343 338 344 190 307 308 336 18 360 316 315 320 4 18 10 6 2 342 342 342 331 341 315 278 257 339 354 324 260 226 146 147 160 141 113 69 18 1 358 354 352 350 348 346
43 44 37 27 28 19 126 187 196 188 199 179 174 147 87 73 38 293 296 336 8 334 338 281 317 341 348 15 4 335 355 3 358 17 14 35 50 25 29 31 17 24 338 337 359 347 327 293 331 349 342 3 10 348 331 326 339 349 351 50 37 351 333 317 304 308 287 270 264 354 345 298 276 229 153 153 154 141 93 42 25 12 3 355 351 349 348 348
63 64 63 56 67 98 111 129 162 158 166 161 142 70 61 74 173 289 315 294 279 332 1 297 319 343 26 50 344 323 14 351 354 27 7 23 41 10 7 9 15 43 232 334 6 352 346 310 317 49 318 335 360 329 285 290 297 301 196 129 80 16 302 290 265 265 292 293 300 360 332 250 272 279 162 157 134 94 42 21 18 11 3 355 351 352 352 351
67 66 70 69 76 104 108 111 134 129 157 146 87 60 70 112 237 68 298 271 295 326 322 337 11 23 16 350 322 20 60 322 354 60 24 27 52 352 347 342 356 20 62 8 335 279 354 273 258 323 297 303 356 329 280 322 299 279 138 97 13 271 220 251 247 234 274 292 291 275 223 230 258 43 147 157 65 30 21 13 10 5 358 355 354 354 352 348
68 63 64 65 71 93 107 114 120 121 174 134 71 56 108 179 219 157 227 287 345 317 322 358 35 40 350 315 332 5 35 323 355 47 29 52 78 360 342 300 342 22 62 82 325 330 2 273 278 327 308 191 2 330 288 87 310 312 33 323 287 246 173 241 281 272 294 288 278 230 280 288 347 68 131 116 357 7 12 9 5 359 355 355 354 350 345 342
66 61 58 60 63 65 66 43 48 118 127 97 76 87 180 197 177 177 287 326 292 309 35 31 19 20 346 315 321 333 347 357 360 25 22 359 36 7 337 315 2 39 38 176 246 164 233 282 288 317 281 295 341 335 292 225 334 32 355 293 292 307 114 116 284 304 312 273 274 285 291 297 282 275 344 6 354 353 357 358 354 353 356 354 347 341 339 339
66 58 52 51 52 42 38 54 63 113 100 81 77 123 153 152 225 240 311 347 260 41 66 66 325 37 36 307 298 312 346 2 350 11 27 345 357 36 9 327 327 11 0 345 196 276 191 296 296 253 244 305 335 349 324 319 6 136 242 315 353 330 318 354 307 300 300 281 287 295 291 285 245 270 347 351 340 333 332 342 352 352 352 344 336 335 335 335
58 56 46 41 47 44 42 69 97 103 89 76 89 130 114 162 20 357 360 9 48 80 73 98 289 11 43 79 291 305 350 13 345 359 45 14 345 43 59 344 293 342 351 28 148 299 265 282 288 296 339 322 338 8 331 323 335 11 352 359 17 277 275 297 295 290 295 290 292 297 297 294 151 148 343 327 313 315 332 349 354 343 338 334 331 332 332 331
94 74 39 34 60 58 44 84 90 79 76 87 147 134 100 160 98 31 39 35 71 83 79 188 132 357 336 11 344 311 360 18 354 358 52 24 334 9 51 38 298 328 342 13 92 346 344 238 270 294 342 351 341 322 313 317 326 351 352 343 338 325 289 291 276 227 278 291 296 300 298 296 134 144 326 315 315 335 349 351 342 332 331 330 329 329 328 327
95 86 26 23 68 64 36 69 69 63 71 92 103 100 59 123 124 42 46 64 81 77 114 154 121 123 276 354 337 307 350 360 16 49 41 8 13 6 17 13 334 320 337 5 20 4 3 234 261 294 333 339 290 277 282 274 285 4 335 317 320 304 312 321 299 280 288 286 290 293 293 297 144 150 122 353 341 351 353 344 333 329 328 326 327 326 325 325
81 81 17 25 51 77 68 66 45 39 88 80 67 85 96 119 113 46 41 63 71 53 77 111 95 106 155 257 288 305 357 346 13 45 29 342 93 212 323 355 344 322 357 353 297 263 166 163 267 285 290 273 276 289 45 200 267 42 319 324 331 289 349 329 292 298 307 289 288 282 286 301 156 161 17 15 3 348 341 335 328 324 324 325 325 324 325 325
71 65 25 31 61 82 85 72 22 26 71 85 95 87 86 118 97 53 33 38 37 27 43 61 68 63 116 234 15 4 332 306 238 55 149 249 255 244 291 349 352 344 39 356 300 310 26 64 324 302 290 275 283 305 79 84 12 4 315 349 1 320 310 272 260 307 306 285 299 293 283 299 159 278 340 353 357 342 333 331 326 322 323 325 324 324 324 323
72 61 43 38 59 76 82 106 101 64 81 115 92 67 62 80 68 48 29 23 19 57 69 39 42 41 353 147 86 324 320 14 68 116 118 173 233 275 307 355 7 13 43 122 318 339 325 290 6 336 327 330 330 335 340 342 357 339 294 322 344 320 312 289 268 5 292 275 319 312 289 300 320 327 333 341 348 338 328 327 326 322 323 324 323 323 322 321
76 62 50 53 75 88 87 118 131 128 153 113 79 39 49 65 50 42 58 49 40 71 83 5 332 14 4 45 45 349 6 44 304 325 53 153 254 274 348 10 3 359 8 203 291 337 303 229 81 64 340 322 322 322 322 325 332 320 300 316 330 329 324 315 307 323 299 311 337 299 280 298 316 323 328 337 343 332 323 323 324 323 323 322 321 320 320 320
83 71 46 51 68 80 81 96 114 119 144 123 79 29 58 68 33 41 55 57 44 54 69 28 342 349 34 39 32 349 347 17 345 24 59 275 267 257 246 6 6 11 38 342 327 355 112 266 195 162 220 270 281 288 297 310 312 306 311 319 326 344 4 4 346 304 302 311 302 276 287 304 313 320 330 339 337 326 321 323 324 324 323 321 319 318 318 319
78 63 33 52 63 70 70 72 89 106 143 136 105 65 76 47 333 28 41 50 43 47 72 52 33 45 34 31 44 327 306 329 354 41 191 253 255 270 273 259 31 27 56 72 360 57 86 342 264 210 236 255 267 281 290 297 291 294 308 314 317 348 18 27 342 296 307 316 304 305 312 311 311 321 336 338 329 323 321 323 324 322 320 318 317 317 318 318
93 91 84 94 82 59 58 56 78 90 94 103 107 125 85 48 26 43 16 15 46 46 54 44 29 29 342 332 87 288 309 338 335 281 253 274 285 330 317 259 125 16 25 60 39 83 114 266 258 251 278 276 275 282 286 288 285 295 308 312 333 1 8 6 300 294 311 309 301 309 314 310 310 325 338 333 325 322 320 321 321 319 318 316 316 317 318 320
112 109 83 85 97 106 105 97 92 85 66 51 73 72 94 90 81 143 325 1 26 25 37 45 345 337 300 238 122 139 290 339 315 284 244 274 297 337 341 287 250 356 22 55 40 65 105 260 264 280 293 290 288 283 279 295 307 310 318 6 68 360 321 298 285 291 296 288 292 304 307 305 312 327 328 325 324 320 318 319 319 318 317 317 318 320 320 323
119 120 110 102 93 85 95 94 88 83 50 28 64 56 104 118 129 189 34 41 30 353 26 44 310 310 286 149 108 130 225 206 232 256 213 187 312 259 198 238 239 339 12 36 343 30 42 299 283 328 314 295 295 301 311 321 316 310 325 37 49 344 324 316 305 303 304 300 302 306 304 303 315 323 319 321 323 320 318 318 318 318 319 319 321 323 324 327
117 125 124 113 87 30 54 68 69 86 41 10 67 126 358 113 162 152 68 51 71 64 24 3 301 304 352 73 85 225 251 226 229 248 224 221 268 242 227 241 210 303 356 14 319 7 37 324 311 14 343 304 319 337 330 321 313 310 340 1 349 344 338 322 314 319 319 315 313 313 310 309 321 324 320 320 321 319 315 316 318 320 323 325 325 326 328 331
120 126 126 116 90 10 31 49 37 71 75 345 79 140 96 128 164 138 97 47 62 73 44 334 309 305 21 10 332 291 269 230 228 265 276 249 242 191 149 105 112 130 257 125 325 356 72 343 322 360 330 309 327 336 320 312 321 330 333 299 325 334 329 317 318 324 321 316 315 316 317 317 321 323 321 320 320 317 315 319 321 322 326 330 331 330 331 332
Height
1529 1529 1529 1529 1529 1529 1529 1529 1530 1530 1530 1530 1530 1530 1529 1529 1529 1528 1528 1527 1527 1526 1526 1526 1526 1526 1525 1525 1524 1524 1524 1524 1523 1521 1520 1521 1522 1522 1520 1520 1518 1517 1516 1515 1514 1514 1514 1514 1514 1513 1513 1513 1513 1513 1513 1513 1513 1513 1515 1520 1521 1522 1521 1518 1519 1519 1519 1519 1519 1518 1517 1518 1519 1519 1518 1519 1519 1519 1520 1520 1520 1521 1521 1522 1523 1524 1524 1524
1530 1530 1529 1529 1529 1530 1530 1530 1530 1530 1530 1530 1530 1530 1530 1530 1529 1529 1528 1527 1527 1526 1526 1525 1525 1526 1525 1525 1525 1525 1525 1525 1524 1522 1522 1523 1523 1522 1521 1520 1519 1518 1517 1516 1514 1514 1513 1513 1513 1513 1513 1513 1513 1513 1513 1513 1512 1513 1517 1520 1520 1521 1519 1517 1517 1517 1517 1518 1518 1518 1517 1517 1518 1519 1518 1519 1521 1521 1521 1522 1523 1522 1523 1523 1524 1524 1524 1524
1530 1530 1530 1530 1530 1530 1530 1530 1530 1531 1531 1530 1531 1531 1531 1530 1530 1529 1529 1528 1527 1526 1526 1525 1525 1525 1526 1526 1526 1525 1525 1525 1524 1523 1524 1525 1524 1523 1522 1521 1520 1518 1517 1516 1515 1514 1514 1513 1513 1513 1513 1513 1513 1513 1513 1513 1513 1513 1516 1519 1519 1518 1518 1517 1517 1517 1517 1517 1518 1518 1517 1517 1518 1518 1518 1519 1522 1522 1521 1522 1523 1523 1523 1523 1523 1524 1524 1524
1530 1531 1531 1531 1531 1531 1531 1531 1531 1531 1531 1531 1531 1531 1531 1531 1530 1530 1529 1529 1528 1527 1527 1526 1526 1526 1527 1527 1526 1526 1525 1525 1526 1526 1526 1525 1524 1524 1522 1521 1520 1519 1517 1516 1515 1514 1514 1513 1513 1513 1513 1513 1513 1513 1514 1514 1514 1514 1515 1517 1517 1517 1518 1517 1517 1517 1517 1517 1517 1517 1517 1517 1517 1517 1517 1518 1520 1521 1520 1520 1521 1522 1522 1523 1523 1524 1524 1524
1531 1532 1532 1531 1531 1531 1531 1531 1531 1532 1532 1532 1532 1532 1532 1531 1531 1530 1529 1529 1529 1529 1528 1527 1527 1527 1527 1527 1526 1524 1524 1528 1529 1528 1527 1526 1525 1524 1523 1522 1520 1519 1518 1516 1515 1514 1514 1514 1513 1513 1513 1513 1513 1514 1514 1514 1514 1515 1516 1517 1517 1517 1517 1517 1517 1517 1517 1516 1516 1517 1517 1516 1516 1516 1516 1516 1517 1517 1518 1519 1520 1521 1522 1522 1523 1523 1524 1524
1532 1532 1532 1532 1532 1532 1532 1532 1532 1532 1532 1532 1532 1533 1532 1532 1531 1531 1530 1530 1530 1530 1529 1529 1528 1528 1528 1527 1527 1524 1525 1531 1532 1529 1528 1527 1525 1525 1523 1522 1521 1520 1518 1516 1514 1514 1514 1513 1513 1513 1514 1514 1515 1515 1515 1515 1514 1515 1517 1517 1516 1516 1516 1516 1516 1516 1516 1516 1516 1516 1516 1516 1516 1516 1516 1516 1516 1516 1517 1518 1519 1521 1522 1522 1523 1524 1524 1524
1533 1533 1533 1533 1533 1533 1533 1533 1533 1533 1533 1533 1533 1533 1533 1533 1532 1532 1531 1531 1531 1530 1530 1529 1528 1528 1528 1528 1528 1526 1527 1531 1532 1530 1529 1527 1526 1526 1524 1523 1522 1520 1518 1515 1513 1514 1514 1514 1514 1514 1515 1516 1516 1516 1515 1515 1514 1515 1516 1516 1516 1515 1515 1515 1515 1515 1516 1515 1514 1515 1515 1515 1515 1515 1516 1516 1515 1516 1517 1518 1519 1520 1521 1522 1523 1523 1524 1524
1534 1534 1534 1534 1534 1534 1534 1534 1534 1534 1534 1534 1534 1534 1534 1534 1533 1533 1532 1532 1532 1531 1530 1529 1529 1529 1528 1529 1528 1527 1528 1532 1532 1530 1529 1528 1527 1526 1525 1524 1523 1521 1518 1516 1515 1515 1515 1515 1515 1515 1516 1517 1517 1516 1516 1515 1515 1515 1516 1515 1515 1514 1514 1514 1514 1514 1514 1514 1514 1514 1514 1514 1514 1515 1515 1514 1515 1515 1516 1517 1518 1519 1520 1522 1522 1523 1524 1525
1535 1535 1535 1534 1535 1534 1534 1535 1534 1534 1535 1535 1535 1535 1535 1535 1534 1534 1534 1533 1533 1532 1532 1530 1530 1529 1529 1529 1527 1528 1533 1534 1532 1531 1529 1528 1528 1527 1526 1525 1523 1521 1519 1518 1517 1516 1515 1516 1516 1516 1517 1517 1517 1516 1515 1515 1516 1516 1516 1515 1515 1514 1514 1514 1514 1513 1513 1513 1513 1513 1513 1514 1514 1515 1513 1513 1513 1514 1515 1516 1517 1518 1519 1521 1522 1523 1524 1525
1535 1535 1535 1535 1535 1535 1535 1535 1535 1535 1535 1535 1535 1535 1536 1535 1535 1535 1534 1534 1533 1533 1532 1532 1532 1530 1530 1529 1526 1531 1536 1535 1533 1531 1529 1529 1528 1527 1526 1525 1524 1522 1520 1519 1518 1517 1517 1517 1516 1516 1516 1516 1516 1516 1516 1516 1517 1517 1516 1515 1515 1514 1514 1515 1514 1513 1513 1512 1511 1512 1513 1513 1513 1514 1512 1510 1512 1513 1514 1515 1516 1517 1518 1520 1521 1523 1524 1524
1536 1536 1536 1536 1536 1536 1535 1535 1536 1536 1536 1536 1536 1536 1536 1536 1536 1535 1535 1535 1534 1534 1533 1533 1533 1532 1531 1528 1527 1534 1537 1534 1533 1531 1529 1529 1528 1528 1526 1525 1524 1523 1521 1520 1519 1519 1518 1518 1517 1516 1516 1516 1516 1517 1516 1516 1517 1516 1515 1515 1515 1515 1514 1515 1514 1512 1512 1511 1510 1511 1513 1513 1514 1513 1508 1507 1510 1511 1512 1514 1515 1516 1518 1520 1521 1522 1524 1525
1537 1537 1536 1536 1536 1536 1536 1536 1536 1536 1537 1537 1537 1537 1537 1537 1536 1536 1536 1535 1535 1534 1534 1534 1533 1533 1531 1527 1529 1536 1536 1534 1533 1531 1530 1529 1528 1527 1526 1525 1524 1523 1522 1522 1521 1521 1520 1519 1517 1516 1516 1516 1516 1517 1517 1517 1517 1516 1516 1516 1516 1516 1515 1515 1514 1512 1512 1511 1510 1511 1512 1512 1513 1509 1504 1506 1508 1510 1512 1513 1515 1517 1518 1520 1521 1523 1524 1525
1537 1537 1537 1537 1536 1536 1536 1537 1537 1537 1537 1537 1538 1537 1537 1537 1536 1536 1536 1535 1536 1535 1535 1534 1534 1533 1530 1529 1534 1537 1535 1534 1533 1531 1530 1529 1528 1527 1527 1526 1525 1524 1524 1523 1522 1522 1521 1520 1518 1517 1517 1516 1516 1517 1517 1518 1516 1516 1519 1519 1520 1520 1515 1513 1514 1513 1513 1512 1511 1512 1512 1507 1506 1505 1503 1506 1507 1509 1511 1513 1515 1517 1518 1520 1522 1523 1525 1526
1538 1537 1537 1537 1537 1537 1537 1537 1537 1538 1538 1538 1538 1538 1538 1537 1537 1537 1536 1536 1536 1536 1535 1535 1534 1533 1531 1532 1537 1537 1536 1535 1533 1531 1529 1528 1528 1527 1527 1526 1525 1525 1524 1523 1523 1522 1522 1521 1519 1517 1517 1517 1517 1517 1518 1520 1519 1519 1520 1522 1529 1527 1516 1512 1515 1515 1513 1512 1511 1514 1512 1503 1501 1504 1503 1506 1506 1507 1509 1512 1515 1517 1519 1521 1522 1524 1525 1527
1538 1538 1537 1537 1537 1537 1537 1538 1538 1539 1539 1539 1539 1538 1538 1538 1538 1538 1537 1537 1537 1537 1536 1535 1534 1534 1533 1535 1537 1537 1536 1534 1532 1530 1529 1528 1528 1527 1527 1526 1526 1526 1525 1524 1523 1523 1522 1521 1519 1519 1520 1518 1517 1519 1521 1521 1523 1527 1525 1525 1533 1531 1522 1516 1514 1514 1514 1513 1511 1514 1512 1503 1502 1504 1504 1506 1506 1506 1509 1512 1515 1517 1519 1522 1523 1525 1526 1527
1539 1538 1538 1538 1538 1538 1539 1539 1539 1540 1540 1540 1539 1539 1538 1538 1539 1538 1538 1538 1537 1537 1537 1535 1535 1533 1534 1538 1539 1537 1536 1534 1532 1531 1529 1529 1528 1528 1528 1527 1527 1526 1526 1525 1524 1524 1523 1521 1520 1523 1523 1520 1522 1525 1523 1524 1529 1534 1534 1532 1531 1530 1527 1521 1512 1512 1515 1513 1512 1514 1513 1506 1504 1505 1504 1505 1505 1506 1510 1513 1516 1518 1520 1522 1524 1526 1527 1527
1539 1539 1539 1539 1539 1540 1540 1540 1540 1541 1541 1540 1540 1539 1539 1539 1539 1539 1539 1538 1538 1538 1536 1536 1535 1533 1535 1540 1540 1538 1537 1536 1534 1532 1530 1530 1529 1529 1528 1528 1527 1526 1526 1526 1525 1524 1523 1522 1524 1526 1527 1527 1530 1528 1524 1530 1536 1536 1538 1537 1533 1532 1531 1525 1515 1512 1514 1514 1513 1514 1514 1509 1505 1504 1504 1504 1505 1508 1512 1515 1517 1519 1521 1524 1525 1526 1527 1527
1540 1541 1541 1541 1541 1541 1541 1541 1542 1542 1542 1541 1541 1540 1540 1540 1540 1540 1540 1539 1538 1537 1536 1536 1535 1536 1540 1542 1542 1541 1540 1538 1536 1533 1531 1531 1530 1529 1529 1528 1527 1527 1526 1526 1525 1525 1524 1525 1526 1527 1529 1531 1533 1532 1531 1538 1541 1539 1541 1538 1535 1535 1532 1529 1521 1514 1513 1515 1514 1513 1512 1510 1504 1502 1502 1503 1506 1510 1513 1516 1518 1520 1523 1525 1526 1526 1526 1526
1541 1542 1542 1542 1542 1543 1543 1543 1543 1543 1543 1543 1542 1542 1541 1541 1541 1540 1540 1539 1538 1538 1541 1542 1540 1543 1547 1545 1545 1544 1542 1540 1537 1534 1533 1532 1531 1531 1529 1529 1528 1527 1527 1527 1527 1527 1527 1528 1530 1532 1535 1537 1538 1539 1539 1540 1541 1541 1543 1541 1537 1536 1533 1529 1523 1518 1516 1513 1511 1511 1511 1510 1505 1502 1502 1503 1506 1510 1513 1517 1520 1522 1524 1526 1526 1526 1525 1525
1543 1543 1543 1543 1544 1544 1544 1544 1544 1544 1544 1544 1543 1543 1542 1542 1541 1543 1543 1540 1541 1545 1549 1549 1547 1548 1549 1547 1546 1544 1542 1541 1538 1535 1534 1533 1532 1531 1530 1530 1529 1528 1529 1531 1531 1531 1530 1533 1539 1542 1543 1542 1541 1542 1541 1540 1542 1541 1541 1540 1537 1535 1532 1527 1522 1519 1519 1515 1509 1509 1512 1511 1509 1508 1506 1505 1507 1512 1515 1518 1521 1524 1525 1525 1526 1525 1525 1524
1544 1544 1544 1544 1544 1545 1545 1545 1545 1545 1544 1544 1544 1543 1543 1542 1542 1545 1545 1544 1547 1549 1550 1550 1549 1549 1548 1548 1546 1544 1543 1541 1538 1537 1536 1534 1533 1532 1532 1532 1531 1532 1534 1535 1534 1534 1533 1538 1545 1545 1544 1544 1543 1544 1542 1541 1542 1541 1540 1538 1535 1533 1530 1524 1522 1519 1519 1519 1511 1508 1511 1512 1513 1515 1511 1509 1512 1516 1518 1520 1523 1525 1525 1526 1526 1525 1525 1524
1544 1545 1545 1545 1545 1545 1545 1545 1545 1545 1545 1545 1544 1543 1543 1543 1544 1545 1545 1546 1550 1550 1550 1550 1550 1549 1549 1548 1547 1546 1543 1540 1538 1537 1537 1536 1534 1534 1536 1536 1536 1538 1539 1536 1536 1537 1539 1543 1546 1545 1544 1544 1544 1544 1543 1541 1541 1541 1540 1539 1535 1533 1528 1520 1518 1519 1521 1521 1512 1507 1512 1516 1520 1520 1516 1515 1516 1520 1522 1522 1525 1526 1526 1526 1526 1526 1525 1524
1545 1545 1545 1546 1546 1546 1546 1546 1546 1546 1546 1545 1545 1544 1544 1544 1544 1545 1545 1547 1549 1550 1551 1550 1550 1550 1549 1548 1549 1547 1544 1543 1543 1541 1539 1538 1536 1537 1538 1539 1541 1542 1542 1540 1539 1541 1544 1546 1546 1545 1544 1543 1544 1544 1544 1541 1540 1541 1541 1539 1535 1535 1534 1525 1517 1516 1520 1520 1513 1510 1511 1517 1523 1521 1520 1522 1520 1522 1524 1524 1526 1526 1527 1527 1527 1526 1525 1523
1546 1546 1546 1546 1546 1547 1546 1546 1546 1546 1546 1545 1545 1545 1545 1545 1545 1546 1545 1547 1549 1551 1551 1551 1551 1550 1550 1550 1549 1549 1547 1548 1548 1546 1544 1541 1539 1540 1541 1542 1544 1544 1546 1546 1543 1544 1546 1547 1546 1546 1545 1544 1544 1544 1544 1543 1540 1540 1539 1538 1536 1534 1536 1532 1523 1518 1518 1516 1513 1513 1510 1513 1524 1524 1523 1526 1522 1523 1525 1524 1526 1526 1527 1527 1526 1525 1524 1523
1546 1546 1547 1547 1547 1547 1547 1546 1546 1546 1546 1546 1545 1545 1545 1545 1545 1545 1545 1548 1551 1551 1551 1552 1552 1552 1552 1551 1550 1550 1549 1549 1551 1550 1548 1545 1543 1543 1543 1544 1545 1546 1548 1548 1546 1546 1547 1547 1546 1545 1544 1545 1545 1543 1545 1544 1541 1539 1536 1536 1536 1534 1532 1529 1525 1524 1521 1515 1512 1514 1513 1515 1524 1526 1525 1526 1524 1524 1525 1525 1526 1527 1526 1526 1525 1524 1524 1523
1547 1547 1547 1547 1547 1547 1547 1547 1546 1546 1546 1546 1545 1545 1545 1545 1545 1545 1546 1551 1554 1553 1552 1552 1553 1554 1553 1553 1550 1549 1550 1551 1554 1554 1549 1547 1546 1545 1546 1548 1547 1547 1549 1548 1547 1547 1547 1547 1546 1546 1545 1545 1544 1543 1544 1544 1542 1539 1535 1535 1535 1533 1531 1526 1524 1527 1525 1519 1514 1514 1517 1517 1520 1525 1527 1527 1526 1525 1526 1526 1526 1526 1526 1525 1525 1524 1523 1522
1547 1547 1547 1547 1547 1547 1547 1547 1546 1546 1546 1545 1545 1544 1544 1544 1544 1544 1546 1554 1559 1557 1555 1555 1556 1557 1556 1556 1553 1550 1556 1557 1554 1555 1552 1549 1549 1546 1548 1552 1550 1549 1549 1547 1547 1548 1547 1546 1546 1546 1545 1543 1543 1544 1543 1544 1544 1537 1532 1534 1533 1530 1529 1524 1524 1528 1525 1520 1517 1515 1516 1514 1513 1521 1527 1526 1525 1526 1526 1527 1526 1526 1526 1525 1525 1524 1522 1522
1548 1548 1547 1547 1547 1547 1547 1547 1546 1546 1545 1545 1545 1544 1544 1543 1544 1544 1547 1559 1566 1560 1559 1559 1558 1559 1559 1559 1556 1555 1561 1560 1556 1558 1556 1552 1550 1547 1549 1553 1553 1551 1550 1548 1548 1549 1548 1546 1546 1546 1545 1544 1544 1544 1543 1543 1541 1534 1531 1534 1532 1530 1527 1522 1523 1526 1524 1521 1518 1516 1515 1513 1512 1519 1526 1524 1524 1526 1526 1527 1527 1525 1525 1524 1524 1523 1522 1522
1548 1547 1547 1547 1547 1547 1546 1546 1545 1545 1545 1544 1544 1544 1544 1543 1544 1545 1548 1561 1567 1562 1562 1561 1559 1561 1561 1560 1559 1559 1562 1560 1560 1561 1557 1554 1552 1549 1551 1553 1553 1551 1550 1549 1549 1550 1549 1547 1548 1547 1546 1547 1545 1543 1542 1542 1539 1534 1533 1532 1529 1528 1525 1521 1523 1522 1522 1520 1517 1517 1518 1519 1518 1518 1523 1523 1523 1527 1527 1526 1527 1525 1525 1525 1524 1523 1521 1520
1548 1547 1546 1546 1546 1546 1546 1545 1544 1544 1544 1543 1543 1544 1544 1544 1546 1549 1555 1565 1567 1564 1564 1563 1563 1566 1564 1561 1561 1562 1563 1562 1563 1562 1558 1557 1555 1552 1552 1552 1552 1551 1551 1550 1549 1549 1549 1547 1548 1547 1547 1547 1545 1543 1539 1539 1539 1533 1533 1531 1526 1525 1522 1521 1523 1522 1521 1517 1514 1517 1518 1520 1522 1518 1521 1523 1524 1527 1527 1526 1526 1525 1524 1524 1523 1522 1521 1519
1547 1546 1546 1545 1545 1545 1544 1544 1543 1543 1543 1543 1543 1543 1544 1546 1548 1555 1565 1569 1567 1567 1566 1566 1568 1569 1568 1569 1567 1566 1565 1564 1564 1563 1562 1562 1559 1557 1556 1556 1557 1553 1552 1554 1552 1550 1548 1546 1547 1546 1547 1546 1544 1543 1539 1538 1538 1534 1535 1534 1527 1524 1522 1521 1522 1523 1523 1517 1513 1516 1515 1517 1520 1517 1520 1524 1524 1526 1527 1526 1526 1524 1524 1523 1522 1521 1519 1518
1546 1546 1545 1544 1544 1543 1543 1543 1542 1542 1542 1542 1543 1543 1544 1547 1555 1567 1572 1568 1568 1572 1572 1572 1573 1571 1572 1573 1572 1570 1569 1567 1567 1567 1568 1568 1567 1567 1567 1570 1569 1559 1555 1559 1559 1554 1548 1546 1548 1547 1546 1547 1545 1542 1539 1536 1536 1536 1536 1536 1536 1537 1535 1531 1529 1529 1528 1519 1513 1514 1514 1516 1514 1511 1517 1523 1524 1525 1526 1526 1525 1524 1523 1522 1520 1519 1517 1516
1546 1545 1545 1544 1543 1543 1542 1542 1542 1542 1542 1542 1543 1544 1545 1551 1566 1579 1578 1571 1573 1577 1577 1577 1575 1574 1574 1572 1573 1573 1571 1570 1569 1569 1570 1570 1571 1573 1575 1577 1577 1570 1565 1566 1566 1562 1553 1547 1548 1547 1545 1546 1546 1545 1543 1539 1537 1538 1537 1538 1543 1548 1551 1548 1543 1539 1532 1520 1512 1513 1517 1518 1511 1508 1516 1520 1522 1524 1524 1523 1523 1522 1521 1520 1518 1517 1515 1512
1546 1545 1545 1544 1543 1542 1542 1541 1542 1542 1542 1543 1544 1544 1548 1560 1576 1583 1579 1577 1579 1578 1578 1579 1576 1574 1574 1573 1576 1575 1571 1571 1572 1571 1571 1571 1574 1577 1578 1578 1577 1577 1575 1571 1570 1569 1562 1552 1547 1548 1548 1548 1547 1546 1546 1543 1539 1539 1539 1540 1543 1547 1554 1554 1545 1538 1531 1521 1517 1517 1518 1515 1509 1509 1513 1516 1518 1520 1520 1520 1520 1519 1518 1517 1515 1512 1509 1505
1546 1546 1545 1544 1543 1543 1542 1542 1542 1542 1542 1543 1545 1549 1558 1572 1582 1582 1580 1582 1582 1579 1579 1579 1576 1573 1573 1575 1577 1576 1574 1572 1572 1573 1574 1577 1579 1580 1581 1581 1579 1579 1576 1572 1571 1572 1568 1558 1549 1548 1550 1549 1547 1545 1545 1543 1540 1540 1540 1541 1542 1543 1547 1545 1538 1535 1534 1531 1527 1522 1514 1507 1507 1511 1513 1514 1515 1516 1516 1516 1515 1515 1515 1513 1511 1507 1506 1505
1547 1546 1545 1544 1544 1543 1542 1543 1542 1543 1544 1543 1547 1561 1574 1581 1583 1582 1583 1584 1584 1583 1579 1577 1576 1575 1575 1576 1575 1576 1575 1573 1573 1573 1575 1581 1583 1582 1583 1582 1582 1582 1578 1576 1576 1575 1572 1559 1549 1549 1548 1547 1548 1545 1544 1544 1542 1540 1540 1541 1541 1540 1540 1541 1537 1534 1537 1538 1528 1517 1512 1508 1509 1513 1513 1514 1514 1512 1514 1515 1515 1515 1514 1511 1509 1507 1507 1505
1547 1546 1545 1545 1544 1544 1544 1544 1543 1544 1544 1543 1553 1573 1584 1585 1584 1586 1586 1584 1585 1585 1580 1576 1578 1579 1580 1578 1576 1576 1576 1574 1574 1574 1576 1581 1582 1583 1585 1583 1582 1583 1582 1581 1579 1579 1579 1564 1551 1552 1549 1545 1546 1544 1542 1544 1542 1542 1544 1542 1539 1538 1538 1543 1543 1538 1538 1539 1524 1511 1513 1512 1511 1514 1513 1512 1514 1513 1515 1516 1516 1515 1512 1510 1510 1508 1507 1504
1548 1547 1546 1545 1545 1546 1545 1544 1545 1545 1544 1549 1566 1581 1585 1585 1585 1586 1586 1585 1585 1584 1581 1581 1581 1581 1583 1582 1579 1580 1579 1576 1577 1578 1579 1581 1581 1584 1587 1585 1583 1583 1583 1583 1579 1580 1582 1568 1552 1553 1553 1547 1546 1545 1542 1543 1542 1543 1544 1543 1544 1546 1545 1545 1547 1542 1540 1538 1524 1511 1510 1511 1512 1516 1517 1517 1517 1517 1517 1516 1514 1512 1511 1510 1509 1506 1504 1501
1548 1547 1547 1548 1547 1546 1547 1546 1547 1545 1545 1557 1575 1582 1583 1585 1586 1585 1585 1585 1585 1583 1583 1585 1585 1583 1584 1584 1583 1584 1583 1581 1582 1581 1581 1583 1584 1585 1588 1587 1585 1584 1583 1583 1582 1581 1582 1574 1559 1552 1554 1551 1546 1546 1546 1545 1544 1543 1543 1544 1547 1549 1547 1545 1544 1542 1541 1538 1528 1517 1510 1510 1515 1519 1521 1521 1519 1517 1515 1513 1513 1512 1510 1509 1506 1503 1501 1498
1548 1548 1549 1550 1548 1548 1550 1548 1547 1548 1554 1569 1579 1581 1583 1586 1585 1585 1585 1585 1584 1584 1584 1586 1587 1584 1584 1585 1586 1587 1586 1585 1585 1584 1584 1587 1587 1585 1589 1590 1587 1585 1583 1582 1583 1582 1581 1580 1567 1553 1553 1554 1550 1549 1548 1548 1548 1547 1547 1549 1550 1548 1546 1546 1542 1537 1539 1539 1533 1527 1515 1509 1515 1520 1519 1519 1516 1514 1513 1512 1512 1511 1508 1506 1503 1500 1497 1494
1548 1549 1551 1551 1550 1551 1551 1550 1553 1559 1568 1577 1580 1582 1584 1584 1584 1586 1585 1585 1585 1584 1585 1586 1586 1586 1586 1586 1587 1588 1587 1586 1587 1587 1587 1589 1589 1587 1589 1590 1589 1587 1585 1582 1584 1584 1582 1582 1575 1564 1560 1556 1551 1548 1547 1548 1549 1549 1550 1550 1551 1551 1550 1553 1548 1536 1536 1536 1532 1532 1522 1509 1512 1516 1516 1516 1513 1511 1512 1511 1510 1508 1505 1503 1500 1497 1494 1490
1548 1551 1553 1551 1551 1552 1551 1556 1565 1570 1574 1578 1580 1582 1584 1584 1585 1586 1585 1585 1585 1584 1585 1586 1587 1588 1588 1587 1588 1589 1588 1587 1587 1588 1589 1590 1591 1590 1590 1590 1589 1588 1586 1585 1585 1585 1584 1584 1580 1572 1562 1555 1550 1548 1548 1549 1548 1548 1550 1549 1550 1552 1552 1558 1556 1543 1537 1533 1527 1530 1524 1511 1509 1512 1511 1512 1513 1512 1512 1511 1508 1505 1503 1500 1496 1493 1490 1487
1550 1553 1554 1553 1553 1552 1552 1562 1573 1575 1577 1582 1582 1583 1584 1584 1585 1585 1585 1585 1585 1585 1585 1586 1587 1588 1588 1589 1589 1589 1588 1588 1588 1588 1590 1591 1591 1591 1590 1589 1588 1587 1587 1586 1585 1584 1584 1583 1579 1568 1556 1549 1546 1546 1547 1548 1548 1549 1550 1549 1550 1552 1552 1554 1553 1548 1544 1536 1528 1530 1524 1510 1508 1510 1509 1512 1513 1513 1511 1509 1507 1503 1500 1497 1493 1489 1486 1482
1553 1554 1555 1554 1554 1553 1554 1563 1573 1578 1582 1582 1582 1583 1584 1584 1585 1585 1586 1586 1585 1586 1586 1587 1589 1588 1589 1590 1590 1590 1588 1587 1587 1588 1590 1591 1590 1589 1589 1588 1588 1587 1587 1586 1586 1585 1582 1580 1579 1573 1568 1559 1551 1549 1549 1547 1550 1552 1551 1550 1551 1551 1551 1550 1549 1552 1550 1539 1536 1540 1527 1508 1506 1509 1510 1512 1513 1512 1511 1508 1506 1502 1497 1494 1490 1486 1482 1479
1554 1555 1557 1556 1554 1554 1558 1564 1569 1576 1581 1581 1582 1585 1584 1585 1586 1586 1587 1587 1587 1587 1587 1588 1589 1589 1591 1591 1590 1591 1590 1587 1587 1589 1590 1590 1589 1588 1588 1587 1587 1586 1586 1586 1586 1585 1583 1583 1582 1580 1584 1583 1573 1565 1557 1551 1552 1553 1551 1552 1552 1553 1554 1552 1550 1553 1550 1543 1546 1548 1530 1510 1507 1510 1510 1510 1511 1510 1508 1506 1504 1501 1496 1492 1487 1482 1478 1475
1554 1556 1559 1560 1559 1559 1564 1568 1569 1572 1578 1579 1581 1585 1585 1586 1587 1587 1587 1587 1587 1588 1589 1589 1590 1590 1591 1591 1589 1590 1590 1589 1589 1588 1589 1589 1588 1588 1587 1587 1586 1586 1585 1586 1585 1585 1585 1585 1581 1579 1582 1584 1577 1568 1561 1559 1559 1556 1552 1553 1553 1555 1557 1555 1555 1555 1550 1548 1548 1542 1531 1518 1511 1511 1511 1510 1510 1507 1504 1502 1499 1497 1493 1489 1484 1479 1475 1471
1555 1560 1563 1563 1564 1565 1568 1571 1572 1573 1576 1577 1580 1585 1586 1586 1587 1587 1587 1588 1588 1589 1590 1591 1591 1591 1591 1591 1591 1590 1590 1590 1590 1588 1589 1590 1588 1588 1587 1586 1586 1585 1585 1585 1584 1585 1585 1582 1579 1579 1578 1575 1572 1567 1563 1564 1563 1557 1554 1554 1553 1556 1558 1557 1559 1556 1553 1554 1543 1529 1527 1524 1514 1512 1513 1512 1510 1506 1501 1499 1496 1493 1489 1485 1480 1475 1471 1467
1557 1562 1565 1565 1566 1571 1572 1573 1574 1575 1576 1578 1581 1585 1586 1587 1588 1588 1588 1588 1589 1590 1590 1591 1592 1593 1593 1593 1591 1591 1590 1589 1588 1588 1590 1590 1589 1588 1586 1585 1586 1585 1585 1585 1584 1585 1586 1582 1579 1579 1576 1572 1570 1567 1563 1563 1562 1556 1554 1554 1555 1558 1559 1559 1560 1556 1555 1556 1542 1526 1526 1524 1515 1513 1514 1513 1510 1505 1501 1498 1494 1489 1485 1481 1476 1472 1467 1464
1558 1562 1566 1566 1568 1573 1575 1575 1576 1576 1577 1579 1582 1585 1587 1587 1588 1590 1590 1590 1589 1591 1590 1590 1593 1594 1594 1593 1591 1592 1592 1590 1588 1589 1590 1590 1590 1589 1587 1586 1586 1585 1585 1585 1585 1586 1585 1581 1579 1580 1577 1571 1567 1564 1562 1561 1558 1554 1554 1556 1558 1560 1559 1558 1558 1554 1552 1550 1540 1530 1526 1522 1517 1516 1515 1512 1510 1505 1500 1495 1491 1486 1480 1476 1472 1468 1465 1462
1557 1560 1563 1566 1570 1574 1576 1577 1577 1576 1578 1580 1582 1586 1588 1588 1589 1591 1592 1591 1590 1592 1592 1591 1593 1593 1592 1592 1591 1591 1592 1591 1589 1589 1590 1590 1590 1589 1588 1587 1586 1586 1585 1585 1586 1586 1584 1580 1580 1582 1578 1569 1562 1559 1559 1559 1558 1556 1556 1558 1560 1560 1558 1556 1555 1551 1546 1541 1535 1531 1526 1520 1518 1517 1514 1511 1508 1502 1497 1491 1487 1482 1477 1473 1468 1465 1463 1460
1557 1559 1561 1563 1570 1577 1576 1577 1578 1577 1580 1583 1584 1586 1588 1589 1590 1591 1592 1593 1593 1593 1593 1593 1593 1592 1592 1592 1591 1591 1591 1591 1590 1590 1590 1590 1589 1588 1588 1587 1587 1586 1585 1586 1587 1586 1585 1584 1581 1582 1578 1567 1559 1558 1558 1557 1555 1554 1556 1560 1561 1560 1558 1556 1552 1548 1544 1538 1531 1528 1526 1520 1515 1513 1510 1507 1504 1500 1494 1488 1483 1479 1475 1471 1467 1463 1460 1457
1558 1560 1561 1562 1570 1578 1578 1578 1579 1578 1582 1586 1587 1587 1588 1588 1590 1590 1591 1594 1594 1593 1593 1593 1591 1591 1591 1590 1590 1591 1591 1590 1590 1590 1590 1589 1589 1588 1588 1587 1587 1586 1586 1587 1587 1586 1588 1587 1582 1583 1579 1565 1559 1563 1562 1557 1553 1552 1557 1562 1561 1557 1555 1552 1548 1545 1543 1539 1533 1529 1525 1519 1513 1510 1506 1502 1499 1496 1491 1486 1481 1476 1472 1470 1467 1463 1459 1455